1485943201.02,32751,9.69,73386.0,-4.97,-7.49,-7.53,0,*53
1485943202.24,32752,9.69,73378.5,-4.97,-7.49,-7.49,0,*5B
1485943203.48,32753,9.69,73376.3,-4.95,-7.35,-7.31,0,*5C
1485943204.71,32754,9.69,73380.8,-4.97,-7.23,-7.19,0,*54
1485943205.94,32755,9.69,73384.5,-4.97,-7.23,-7.11,0,*5D
1485943207.17,32756,9.69,73384.5,-4.97,-7.23,-7.11,0,*5E
1485943208.44,32757,9.69,73380.3,-4.97,-7.05,-6.93,0,*50
1485943209.72,32758,9.69,73384.5,-4.97,-6.93,-6.93,0,*51
1485943210.94,32759,9.69,73382.5,-4.95,-6.97,-6.81,0,*55
1485943212.19,32760,9.69,73386.8,-4.97,-6.93,-6.85,0,*5D
1485943213.41,32761,9.69,73386.3,-4.95,-6.97,-6.85,0,*5A
1485943214.64,32762,9.69,73388.5,-4.95,-6.93,-6.85,0,*5D
1485943215.83,32763,9.69,73386.3,-4.95,-7.23,-7.19,0,*52
1485943217.03,32764,9.69,73384.8,-4.95,-7.23,-7.19,0,*55
1485943218.28,32765,9.69,73388.3,-4.93,-7.27,-7.19,0,*56
1485943219.5,32766,9.63,73376.8,-4.93,-7.15,-7.15,0,*58
1485943220.77,32767,9.69,73380.0,-4.93,-7.31,-7.31,0,*59
1485943222.04,32768,9.69,73386.5,-4.93,-7.39,-7.27,0,*59
1485943223.29,32769,9.69,73384.3,-4.95,-7.35,-7.31,0,*55
1485943224.51,32770,9.69,73380.5,-4.95,-7.35,-7.19,0,*57
1485943225.72,32771,9.69,73382.8,-4.95,-7.11,-7.05,0,*5D
1485943226.94,32772,9.69,73384.0,-4.91,-6.89,-6.93,0,*54
1485943228.19,32773,9.69,73380.0,-4.93,-7.19,-7.05,0,*51
1485943229.43,32774,9.69,73382.8,-4.93,-7.31,-7.19,0,*51
1485943230.68,32775,9.69,73382.5,-4.93,-7.15,-7.05,0,*5B
1485943231.91,32776,9.69,73380.3,-4.93,-7.19,-7.15,0,*55
1485943233.15,32777,9.69,73376.8,-4.91,-7.43,-7.31,0,*5F
1485943234.42,32778,9.63,73372.5,-4.93,-7.39,-7.31,0,*5F
1485943235.67,32779,9.63,73380.5,-4.93,-7.49,-7.39,0,*51
1485943236.95,32780,9.69,73382.5,-4.93,-7.57,-7.43,0,*55
1485943238.2,32781,9.69,73382.5,-4.93,-7.83,-7.61,0,*5D
1485943239.45,32782,9.69,73378.5,-4.93,-7.83,-7.69,0,*56
1485943240.7,32783,9.69,73380.8,-4.97,-7.73,-7.53,0,*55
1485943241.91,32784,9.69,73380.3,-4.95,-7.49,-7.35,0,*59
1485943243.16,32785,9.69,73380.0,-4.95,-7.73,-7.65,0,*54
1485943244.39,32786,9.63,73378.0,-4.97,-7.87,-7.87,0,*52
1485943245.63,32787,9.69,73380.8,-4.95,-7.91,-7.73,0,*5D
1485943246.88,32788,9.69,73376.8,-4.97,-7.87,-7.73,0,*57
1485943248.13,32789,9.69,73378.8,-4.95,-7.73,-7.65,0,*58
1485943249.35,32790,9.69,73380.5,-4.95,-7.87,-7.65,0,*5B
1485943250.6,32791,9.69,73378.0,-4.97,-7.99,-7.87,0,*5B
1485943251.88,32792,9.69,73380.5,-4.97,-7.91,-7.77,0,*5F
1485943253.14,32793,9.69,73376.8,-4.97,-8.03,-7.91,0,*52
1485943254.36,32794,9.69,73382.5,-4.95,-7.65,-7.53,0,*56
1485943255.61,32795,9.69,73382.8,-4.97,-7.61,-7.53,0,*51
1485943256.85,32796,9.69,73386.5,-4.97,-7.65,-7.53,0,*56
1485943258.13,32797,9.69,73382.8,-4.97,-7.65,-7.61,0,*56
1485943259.35,32798,9.63,73372.5,-5.01,-7.95,-7.83,0,*54
1485943260.63,32799,9.69,73378.0,-4.97,-7.91,-7.77,0,*54
1485943261.85,32800,9.69,73382.3,-4.97,-7.87,-7.87,0,*53
1485943263.09,32801,9.69,73380.3,-5.01,-8.03,-7.91,0,*58
1485943264.29,32802,9.69,73386.3,-5.01,-7.83,-7.83,0,*5F
1485943265.53,32803,9.69,73384.5,-5.01,-8.03,-7.91,0,*5A
1485943266.74,32804,9.63,73380.8,-5.01,-7.91,-7.83,0,*5A
1485943268.02,32805,9.69,73378.3,-5.03,-7.65,-7.57,0,*5B
1485943269.24,32806,9.69,73382.0,-5.01,-7.57,-7.53,0,*5F
1485943270.45,32807,9.69,73378.3,-5.01,-7.49,-7.39,0,*5D
1485943271.7,32808,9.69,73378.0,-5.01,-7.65,-7.57,0,*54
1485943272.93,32809,9.69,73378.3,-5.01,-8.03,-7.95,0,*54
1485943274.15,32810,9.69,73374.5,-5.01,-8.17,-7.95,0,*59
1485943275.36,32811,9.69,73374.0,-5.01,-8.17,-7.95,0,*58
1485943276.6,32812,9.63,73374.3,-5.01,-7.91,-7.69,0,*59
1485943277.81,32813,9.69,73376.0,-5.01,-7.69,-7.53,0,*56
1485943279.05,32814,9.69,73380.3,-5.01,-7.91,-7.69,0,*5F
1485943280.29,32815,9.69,73382.8,-5.01,-8.03,-7.91,0,*5D
1485943281.51,32816,9.69,73382.0,-5.01,-7.95,-7.83,0,*5D
1485943282.7,32817,9.69,73386.5,-5.01,-8.17,-8.17,0,*5B
1485943283.97,32818,9.69,73386.5,-5.03,-8.07,-8.03,0,*52
1485943285.19,32819,9.69,73388.5,-5.01,-7.95,-7.83,0,*52
1485943286.44,32820,9.69,73390.3,-5.01,-7.77,-7.65,0,*5C
1485943287.67,32821,9.69,73386.0,-5.01,-8.03,-7.95,0,*5E
1485943288.89,32822,9.69,73394.3,-5.03,-8.17,-8.17,0,*5F
1485943290.1,32823,9.69,73384.3,-5.03,-8.29,-8.17,0,*53
1485943291.37,32824,9.69,73386.5,-5.03,-8.07,-7.95,0,*5D
1485943292.62,32825,9.69,73384.3,-5.03,-8.21,-8.07,0,*5C
1485943293.88,32826,9.69,73388.0,-5.03,-8.03,-8.03,0,*5B
1485943295.1,32827,9.69,73382.5,-5.03,-8.17,-8.17,0,*5A
1485943296.29,32828,9.69,73382.8,-5.01,-8.29,-8.17,0,*5A
1485943297.51,32829,9.69,73386.0,-5.03,-8.29,-8.21,0,*5C
1485943298.72,32830,9.69,73390.5,-5.03,-8.21,-8.21,0,*5C
1485943299.93,32831,9.69,73386.5,-5.05,-7.87,-7.83,0,*5F
1485943301.18,32832,9.69,73390.5,-5.05,-7.69,-7.61,0,*50
1485943302.37,32833,9.69,73388.3,-5.05,-7.53,-7.53,0,*59
1485943303.64,32834,9.69,73390.0,-5.03,-7.69,-7.69,0,*58
1485943304.91,32835,9.69,73384.5,-5.03,-8.03,-8.07,0,*5D
1485943306.18,32836,9.69,73388.5,-5.03,-7.65,-7.69,0,*56
1485943307.45,32837,9.69,73388.3,-5.03,-7.57,-7.57,0,*5B
1485943308.7,32838,9.69,73398.5,-5.03,-7.77,-7.83,0,*5F
1485943309.97,32839,9.69,73392.5,-5.03,-7.77,-7.69,0,*5A
1485943311.24,32840,9.69,73400.0,-5.03,-7.57,-7.57,0,*5B
1485943312.52,32841,9.69,73396.8,-5.03,-7.57,-7.57,0,*5A
1485943313.76,32842,9.69,73402.5,-5.03,-7.83,-7.77,0,*52
1485943315.04,32843,9.69,73392.0,-5.03,-7.65,-7.65,0,*58
1485943316.28,32844,9.69,73394.5,-5.03,-7.91,-7.83,0,*5C
1485943317.54,32845,9.69,73396.3,-5.03,-7.95,-7.95,0,*5E
1485943318.77,32846,9.69,73404.8,-5.05,-7.87,-7.95,0,*58
1485943319.97,32847,9.69,73398.5,-5.05,-7.83,-7.83,0,*5A
1485943321.17,32848,9.69,73400.3,-5.05,-7.83,-7.87,0,*51
1485943322.39,32849,9.69,73398.5,-5.05,-7.87,-7.95,0,*57
1485943323.64,32850,9.69,73402.0,-5.05,-7.95,-7.95,0,*5C
1485943324.88,32851,9.69,73394.8,-5.05,-7.95,-7.99,0,*51
1485943326.1,32852,9.69,73392.3,-5.05,-7.83,-7.95,0,*59
1485943327.37,32853,9.69,73392.0,-5.07,-7.95,-7.99,0,*51
1485943328.63,32854,9.69,73394.5,-5.05,-7.95,-8.07,0,*5C
1485943329.87,32855,9.69,73394.3,-5.07,-7.87,-7.99,0,*54
1485943331.09,32856,9.69,73392.3,-5.07,-7.87,-7.87,0,*58
1485943332.33,32857,9.69,73394.3,-5.07,-7.87,-7.95,0,*5A
1485943333.57,32858,9.69,73392.0,-5.09,-7.95,-8.03,0,*58
1485943334.8,32859,9.69,73390.0,-5.09,-7.87,-7.77,0,*56
1485943336.04,32860,9.69,73388.8,-5.09,-7.65,-7.65,0,*53
1485943337.3,32861,9.69,73388.8,-5.09,-7.61,-7.57,0,*57
1485943338.55,32862,9.69,73384.5,-5.09,-7.61,-7.61,0,*51
1485943339.82,32863,9.69,73386.3,-5.11,-7.69,-7.65,0,*55
1485943341.07,32864,9.69,73382.8,-5.09,-7.43,-7.43,0,*57
1485943342.31,32865,9.69,73386.8,-5.09,-7.31,-7.31,0,*56
1485943343.53,32866,9.69,73388.3,-5.11,-7.53,-7.49,0,*57
1485943344.75,32867,9.69,73388.5,-5.11,-7.53,-7.53,0,*5D
1485943345.99,32868,9.69,73386.3,-5.11,-7.61,-7.53,0,*53
1485943347.24,32869,9.69,73386.5,-5.09,-7.61,-7.57,0,*5F
1485943348.49,32870,9.69,73382.0,-5.09,-7.69,-7.61,0,*5A
1485943349.7,32871,9.69,73382.5,-5.11,-7.49,-7.49,0,*5A
1485943350.92,32872,9.69,73386.5,-5.11,-7.53,-7.49,0,*52
1485943352.14,32873,9.69,73380.3,-5.11,-8.41,-8.41,0,*58
1485943353.35,32874,9.69,73380.3,-5.11,-8.29,-8.29,0,*5F
1485943354.57,32875,9.69,73372.5,-5.11,-8.45,-8.41,0,*5A
1485943355.79,32876,9.69,73372.0,-5.11,-8.55,-8.59,0,*51
1485943357.01,32877,9.69,73366.0,-5.11,-8.45,-8.45,0,*5C
1485943358.26,32878,9.69,73368.5,-5.17,-8.51,-8.51,0,*55
1485943359.45,32879,9.69,73364.0,-5.17,-8.59,-8.63,0,*5D
1485943360.67,32880,9.69,73364.0,-5.19,-8.63,-8.67,0,*58
1485943361.89,32881,9.69,73364.3,-5.19,-8.41,-8.41,0,*5D
1485943363.14,32882,9.69,73362.5,-5.19,-8.51,-8.41,0,*5F
1485943364.34,32883,9.69,73356.0,-5.21,-8.17,-8.17,0,*54
1485943365.56,32884,9.69,73354.0,-5.19,-8.25,-8.29,0,*54
1485943366.76,32885,9.69,73356.0,-5.21,-8.17,-8.17,0,*52
1485943367.96,32886,9.69,73354.3,-5.25,-8.45,-8.45,0,*55
1485943369.15,32887,9.69,73354.0,-5.25,-8.59,-8.55,0,*58
1485943370.35,32888,9.69,73352.0,-5.25,-8.45,-8.45,0,*5B
1485943371.55,32889,9.69,73348.8,-5.25,-8.29,-8.17,0,*57
1485943372.78,32890,9.69,73346.5,-5.25,-7.83,-7.77,0,*59
1485943374.03,32891,9.69,73344.3,-5.25,-7.77,-7.73,0,*57
1485943375.28,32892,9.69,73346.8,-5.25,-7.73,-7.73,0,*50
1485943376.51,32893,9.63,73344.3,-5.25,-7.61,-7.49,0,*5B
1485943377.76,32894,9.69,73354.5,-5.27,-7.49,-7.39,0,*53
1485943379.0,32895,9.69,73358.3,-5.25,-7.39,-7.35,0,*5B
1485943380.24,32896,9.69,73362.3,-5.25,-7.39,-7.27,0,*5B
1485943381.47,32897,9.69,73368.0,-5.25,-7.65,-7.53,0,*50
1485943382.69,32898,9.69,73372.5,-5.27,-7.53,-7.49,0,*53
1485943383.88,32899,9.69,73374.0,-5.25,-7.53,-7.53,0,*5B
1485943385.11,32900,9.69,73370.5,-5.25,-7.83,-7.77,0,*51
1485943386.36,32901,9.69,73366.0,-5.25,-7.95,-7.95,0,*5B
1485943387.62,32902,9.69,73360.3,-5.27,-8.03,-8.03,0,*5A
1485943388.89,32903,9.69,73360.0,-5.27,-7.95,-7.91,0,*5F
1485943390.14,32904,9.69,73366.3,-5.27,-7.91,-7.83,0,*5F
1485943391.39,32905,9.69,73370.5,-5.27,-7.91,-7.83,0,*5E
1485943392.65,32906,9.69,73366.5,-5.25,-7.73,-7.73,0,*5C
1485943393.89,32907,9.69,73374.8,-5.27,-7.65,-7.53,0,*5A
1485943395.14,32908,9.69,73368.5,-5.27,-7.65,-7.53,0,*55
1485943396.41,32909,9.69,73368.0,-5.27,-7.65,-7.65,0,*51
1485943397.69,32910,9.69,73366.8,-5.27,-7.65,-7.65,0,*59
1485943398.94,32911,9.69,73370.8,-5.27,-7.91,-7.83,0,*5B
1485943400.21,32912,9.69,73370.0,-5.27,-7.77,-7.73,0,*5F
1485943401.41,32913,9.69,73368.8,-5.25,-8.17,-8.21,0,*5D
1485943402.68,32914,9.69,73370.0,-5.29,-8.11,-8.07,0,*54
1485943403.93,32915,9.69,73370.5,-5.29,-7.99,-8.07,0,*5A
1485943405.18,32916,9.69,73362.8,-5.29,-7.95,-7.95,0,*51
1485943406.44,32917,9.69,73360.5,-5.29,-7.65,-7.65,0,*50
1485943407.69,32918,9.69,73366.0,-5.29,-7.69,-7.65,0,*53
1485943408.92,32919,9.69,73366.5,-5.29,-7.95,-7.87,0,*5D
1485943410.15,32920,9.69,73364.0,-5.29,-7.83,-7.69,0,*50
1485943411.38,32921,9.69,73362.5,-5.31,-7.83,-7.83,0,*5C
1485943412.63,32922,9.69,73360.3,-5.31,-7.83,-7.77,0,*54
1485943413.84,32923,9.69,73358.0,-5.29,-7.83,-7.83,0,*57
1485943415.09,32924,9.69,73362.5,-5.31,-7.77,-7.83,0,*52
1485943416.32,32925,9.69,73362.5,-5.31,-7.87,-7.83,0,*5C
1485943417.6,32926,9.69,73358.5,-5.31,-7.77,-7.69,0,*54
1485943418.83,32927,9.69,73358.5,-5.31,-7.87,-7.87,0,*5A
1485943420.1,32928,9.69,73350.8,-5.31,-7.99,-7.99,0,*55
1485943421.33,32929,9.69,73354.0,-5.31,-7.83,-7.83,0,*54
1485943422.55,32930,9.69,73356.5,-5.33,-7.87,-7.83,0,*5A
1485943423.82,32931,9.69,73358.5,-5.33,-7.69,-7.61,0,*57
1485943425.1,32932,9.69,73354.5,-5.31,-7.69,-7.69,0,*5E
1485943426.33,32933,9.69,73358.0,-5.31,-7.83,-7.83,0,*5F
1485943427.58,32934,9.69,73358.8,-5.31,-7.95,-7.87,0,*5B
1485943428.85,32935,9.69,73362.5,-5.33,-7.73,-7.69,0,*50
1485943430.05,32936,9.69,73360.3,-5.35,-7.87,-7.83,0,*5A
1485943431.25,32937,9.69,73360.5,-5.35,-7.87,-7.83,0,*5B
1485943432.47,32938,9.69,73360.5,-5.35,-7.91,-7.83,0,*53
1485943433.74,32939,9.69,73360.5,-5.31,-7.65,-7.69,0,*59
1485943434.98,32940,9.69,73366.5,-5.35,-7.91,-7.99,0,*57
1485943436.2,32941,9.69,73362.8,-5.35,-8.25,-8.11,0,*59
1485943437.44,32942,9.69,73372.0,-5.35,-7.91,-7.91,0,*5D
1485943438.66,32943,9.69,73370.8,-5.35,-8.17,-8.03,0,*59
1485943439.88,32944,9.69,73364.8,-5.35,-7.91,-7.87,0,*5C
1485943441.12,32945,9.69,73370.3,-5.35,-8.11,-8.03,0,*59
1485943442.35,32946,9.69,73372.0,-5.39,-8.17,-8.07,0,*54
1485943443.63,32947,9.69,73370.3,-5.41,-8.07,-7.99,0,*53
1485943444.88,32948,9.69,73368.3,-5.41,-7.95,-7.87,0,*57
1485943446.15,32949,9.69,73370.8,-5.41,-7.91,-7.95,0,*51
1485943447.43,32950,9.69,73370.3,-5.41,-8.07,-7.99,0,*55
1485943448.7,32951,9.69,73370.5,-5.41,-7.91,-7.91,0,*5C
1485943449.94,32952,9.69,73368.5,-5.39,-7.77,-7.77,0,*50
1485943451.19,32953,9.69,73366.5,-5.39,-7.77,-7.65,0,*52
1485943452.47,32954,9.69,73364.0,-5.41,-7.99,-8.07,0,*51
1485943453.74,32955,9.69,73370.8,-5.41,-7.99,-7.99,0,*58
1485943454.96,32956,9.69,73368.3,-5.39,-8.03,-7.87,0,*57
1485943456.21,32957,9.69,73362.5,-5.41,-7.91,-7.83,0,*59
1485943457.41,32958,9.69,73368.0,-5.39,-7.87,-7.87,0,*5A
1485943458.66,32959,9.69,73370.0,-5.41,-7.83,-7.77,0,*5F
1485943459.88,32960,9.69,73370.3,-5.39,-7.91,-7.87,0,*56
1485943461.14,32961,9.69,73364.5,-5.39,-8.07,-8.07,0,*50
1485943462.36,32962,9.69,73356.5,-5.41,-8.25,-8.21,0,*58
1485943463.64,32963,9.69,73356.8,-5.41,-7.95,-7.91,0,*59
1485943464.91,32964,9.69,73362.0,-5.41,-7.77,-7.65,0,*59
1485943466.18,32965,9.69,73368.3,-5.41,-7.69,-7.69,0,*5B
1485943467.43,32966,9.69,73368.3,-5.39,-7.65,-7.61,0,*53
1485943468.65,32967,9.69,73360.8,-5.39,-7.65,-7.49,0,*58
1485943469.93,32968,9.69,73344.8,-5.41,-7.43,-7.31,0,*53
1485943471.18,32969,9.69,73344.8,-5.39,-7.35,-7.27,0,*5B
1485943472.42,32970,9.69,73350.3,-5.39,-7.43,-7.31,0,*55
1485943473.67,32971,9.69,73362.3,-5.35,-7.61,-7.69,0,*55
1485943474.92,32972,9.69,73362.8,-5.35,-7.57,-7.35,0,*5A
1485943476.14,32973,9.69,73368.8,-5.39,-7.53,-7.39,0,*5F
1485943477.35,32974,9.69,73366.0,-5.39,-7.49,-7.35,0,*5F
1485943478.6,32975,9.69,73366.5,-5.35,-7.43,-7.35,0,*58
1485943479.82,32976,9.69,73372.5,-5.35,-7.31,-7.23,0,*59
1485943481.07,32977,9.69,73378.5,-5.35,-7.43,-7.35,0,*5A
1485943482.31,32978,9.69,73378.5,-5.35,-7.31,-7.31,0,*54
1485943483.53,32979,9.69,73372.5,-5.35,-7.31,-7.23,0,*56
1485943484.78,32980,9.69,73372.0,-5.35,-7.73,-7.61,0,*50
1485943486.02,32981,9.69,73372.5,-5.35,-7.69,-7.69,0,*52
1485943487.27,32982,9.69,73368.5,-5.33,-7.57,-7.49,0,*58
1485943488.52,32983,9.69,73366.8,-5.35,-7.43,-7.35,0,*51
1485943489.77,32984,9.69,73364.3,-5.35,-7.57,-7.61,0,*52
1485943491.05,32985,9.69,73374.5,-5.33,-7.61,-7.57,0,*55
1485943492.26,32986,9.69,73372.3,-5.35,-7.49,-7.57,0,*5A
1485943493.45,32987,9.69,73378.0,-5.35,-7.49,-7.49,0,*54
1485943494.7,32988,9.69,73378.5,-5.35,-7.73,-7.73,0,*5B
1485943495.96,32989,9.69,73372.5,-5.35,-7.61,-7.61,0,*5A
1485943497.23,32990,9.69,73378.3,-5.33,-7.43,-7.31,0,*51
1485943498.47,32991,9.69,73376.3,-5.33,-7.49,-7.43,0,*5F
1485943499.74,32992,9.69,73376.3,-5.33,-7.69,-7.57,0,*5B
1485943500.98,32993,9.69,73378.3,-5.33,-7.69,-7.49,0,*55
1485943502.25,32994,9.69,73378.3,-5.33,-7.43,-7.31,0,*55
1485943503.5,32995,9.69,73380.3,-5.33,-7.35,-7.23,0,*56
1485943504.75,32996,9.69,73386.5,-5.35,-7.57,-7.57,0,*54
1485943506.02,32997,9.69,73386.5,-5.33,-7.43,-7.35,0,*52
1485943507.26,32998,9.69,73390.0,-5.33,-7.49,-7.43,0,*56
1485943508.49,32999,9.69,73386.0,-5.33,-7.87,-7.87,0,*5D
1485943509.71,33000,9.69,73386.3,-5.33,-7.83,-7.83,0,*55
1485943510.98,33001,9.69,73390.0,-5.33,-7.69,-7.61,0,*5C
1485943512.22,33002,9.69,73392.0,-5.33,-7.49,-7.43,0,*5D
1485943513.5,33003,9.69,73390.8,-5.33,-7.43,-7.43,0,*56
1485943514.74,33004,9.69,73386.8,-5.33,-7.35,-7.49,0,*5A
1485943516.02,33005,9.69,73386.8,-5.33,-7.73,-7.73,0,*50
1485943517.27,33006,9.69,73390.8,-5.31,-7.57,-7.53,0,*55
1485943518.54,33007,9.69,73388.5,-5.31,-7.39,-7.39,0,*50
1485943519.79,33008,9.69,73384.5,-5.31,-7.43,-7.53,0,*5E
1485943521.06,33009,9.69,73384.8,-5.31,-7.65,-7.69,0,*52
1485943522.34,33010,9.69,73386.3,-5.33,-7.73,-7.73,0,*54
1485943523.59,33011,9.69,73390.8,-5.33,-7.91,-7.87,0,*52
1485943524.81,33012,9.69,73386.8,-5.33,-7.87,-7.87,0,*56
1485943526.03,33013,9.69,73380.8,-5.33,-7.83,-7.83,0,*57
1485943527.26,33014,9.69,73384.5,-5.35,-7.73,-7.83,0,*59
1485943528.46,33015,9.69,73386.8,-5.35,-7.83,-7.83,0,*57
1485943529.68,33016,9.69,73384.5,-5.33,-7.83,-7.83,0,*52
1485943530.9,33017,9.69,73386.8,-5.33,-7.83,-7.83,0,*53
1485943532.12,33018,9.69,73390.3,-5.33,-7.87,-7.83,0,*58
1485943533.39,33019,9.69,73388.3,-5.33,-7.73,-7.69,0,*56
1485943534.64,33020,9.69,73382.8,-5.33,-7.83,-7.73,0,*58
1485943535.89,33021,9.69,73388.8,-5.35,-7.73,-7.69,0,*5B
1485943537.14,33022,9.69,73388.8,-5.35,-7.73,-7.73,0,*53
1485943538.38,33023,9.69,73384.5,-5.35,-7.69,-7.69,0,*52
1485943539.63,33024,9.69,73384.8,-5.35,-7.73,-7.73,0,*55
1485943540.9,33025,9.69,73384.3,-5.33,-7.73,-7.69,0,*59
1485943542.15,33026,9.69,73384.3,-5.35,-7.69,-7.73,0,*5C
1485943543.39,33027,9.69,73380.3,-5.35,-7.69,-7.61,0,*5E
1485943544.64,33028,9.69,73380.0,-5.35,-7.73,-7.69,0,*52
1485943545.89,33029,9.69,73382.3,-5.39,-7.65,-7.61,0,*50
1485943547.14,33030,9.69,73380.0,-5.39,-7.65,-7.61,0,*58
1485943548.4,33031,9.69,73376.8,-5.35,-7.73,-7.61,0,*52
1485943549.65,33032,9.69,73376.0,-5.39,-7.73,-7.65,0,*59
1485943550.9,33033,9.69,73378.8,-5.39,-7.61,-7.61,0,*5F
1485943552.12,33034,9.69,73376.5,-5.35,-7.35,-7.23,0,*53
1485943553.35,33035,9.69,73376.3,-5.35,-7.35,-7.23,0,*52
1485943554.57,33036,9.69,73372.8,-5.35,-7.57,-7.49,0,*59
1485943555.82,33037,9.69,73378.0,-5.35,-7.73,-7.61,0,*54
1485943557.04,33038,9.69,73378.5,-5.35,-7.69,-7.49,0,*5A
1485943558.29,33039,9.63,73372.5,-5.39,-7.77,-7.77,0,*55
1485943559.53,33040,9.69,73368.3,-5.35,-7.99,-7.99,0,*57
1485943560.78,33041,9.69,73372.8,-5.35,-8.11,-8.11,0,*56
1485943562.0,33042,9.69,73376.5,-5.39,-8.07,-8.17,0,*58
1485943563.24,33043,9.69,73376.8,-5.39,-8.07,-8.03,0,*5C
1485943564.51,33044,9.69,73380.5,-5.41,-7.91,-7.91,0,*50
1485943565.79,33045,9.69,73382.3,-5.41,-7.95,-7.91,0,*55
1485943567.07,33046,9.69,73384.3,-5.41,-7.57,-7.39,0,*5A
1485943568.31,33047,9.69,73384.5,-5.39,-7.35,-7.27,0,*5F
1485943569.59,33048,9.69,73386.5,-5.41,-7.43,-7.43,0,*5C
1485943570.87,33049,9.69,73384.8,-5.41,-7.69,-7.65,0,*51
1485943572.14,33050,9.69,73386.0,-5.41,-7.77,-7.65,0,*56
1485943573.39,33051,9.69,73384.5,-5.39,-7.65,-7.61,0,*5F
1485943574.68,33052,9.69,73384.3,-5.41,-7.57,-7.57,0,*57
1485943575.95,33053,9.69,73390.3,-5.41,-7.69,-7.65,0,*5A
1485943577.22,33054,9.69,73388.5,-5.41,-7.69,-7.65,0,*5D
1485943578.5,33055,9.69,73388.8,-5.41,-7.65,-7.57,0,*51
1485943579.75,33056,9.69,73384.5,-5.41,-7.65,-7.53,0,*56
1485943580.97,33057,9.69,73388.5,-5.39,-7.61,-7.53,0,*5C
1485943582.16,33058,9.69,73390.8,-5.39,-7.49,-7.49,0,*52
1485943583.43,33059,9.69,73390.8,-5.41,-7.39,-7.31,0,*54
1485943584.7,33060,9.69,73386.3,-5.41,-7.69,-7.57,0,*5B
1485943585.95,33061,9.69,73390.3,-5.41,-7.83,-7.77,0,*5C
1485943587.23,33062,9.69,73394.3,-5.41,-7.43,-7.31,0,*51
1485943588.5,33063,9.69,73390.0,-5.41,-7.69,-7.65,0,*59
1485943589.78,33064,9.69,73386.3,-5.41,-7.65,-7.65,0,*52
1485943591.06,33065,9.69,73384.5,-5.41,-7.69,-7.65,0,*5F
1485943592.33,33066,9.63,73382.8,-5.41,-7.77,-7.77,0,*50
1485943593.61,33067,9.69,73382.5,-5.41,-7.65,-7.65,0,*51
1485943594.85,33068,9.63,73378.5,-5.43,-7.69,-7.69,0,*5C
1485943596.1,33069,9.69,73382.3,-5.43,-7.77,-7.77,0,*5D
1485943597.31,33070,9.69,73382.0,-5.43,-7.83,-7.83,0,*55
1485943598.55,33071,9.69,73382.0,-5.43,-7.69,-7.77,0,*5B
1485943599.8,33072,9.69,73380.5,-5.43,-7.69,-7.65,0,*5B
1485943601.05,33073,9.69,73384.3,-5.43,-7.43,-7.39,0,*5B
1485943602.3,33074,9.69,73382.8,-5.43,-7.77,-7.77,0,*51
1485943603.53,33075,9.69,73384.5,-5.45,-7.83,-7.83,0,*56
1485943604.78,33076,9.69,73386.3,-5.43,-7.77,-7.77,0,*53
1485943606.03,33077,9.69,73384.8,-5.43,-7.77,-7.77,0,*52
1485943607.3,33078,9.69,73386.5,-5.45,-7.73,-7.69,0,*50
1485943608.56,33079,9.63,73382.0,-5.43,-7.57,-7.57,0,*5C
1485943609.82,33080,9.69,73384.3,-5.43,-7.57,-7.43,0,*5F
1485943611.04,33081,9.69,73386.0,-5.43,-7.57,-7.53,0,*5F
1485943612.29,33082,9.63,73380.5,-5.43,-7.65,-7.57,0,*59
1485943613.54,33083,9.69,73382.8,-5.43,-7.57,-7.57,0,*59
1485943614.77,33084,9.69,73382.3,-5.43,-7.83,-7.77,0,*55
1485943616.02,33085,9.69,73378.5,-5.45,-7.61,-7.49,0,*53
1485943617.27,33086,9.69,73382.5,-5.43,-7.43,-7.43,0,*5C
1485943618.52,33087,9.69,73384.3,-5.43,-7.65,-7.69,0,*51
1485943619.75,33088,9.63,73376.8,-5.45,-7.87,-7.87,0,*54
1485943621.02,33089,9.63,73384.3,-5.45,-8.03,-8.03,0,*55
1485943622.28,33090,9.69,73386.3,-5.45,-8.03,-7.95,0,*5D
1485943623.53,33091,9.69,73384.8,-5.43,-7.91,-7.91,0,*5A
1485943624.75,33092,9.63,73388.8,-5.43,-7.91,-7.83,0,*5A
1485943626.03,33093,9.69,73388.5,-5.45,-7.99,-7.99,0,*5E
1485943627.25,33094,9.69,73386.3,-5.45,-7.87,-7.87,0,*59
1485943628.48,33095,9.69,73386.0,-5.45,-7.87,-7.87,0,*58
1485943629.76,33096,9.69,73380.5,-5.45,-7.69,-7.61,0,*53
1485943631.04,33097,9.69,73384.5,-5.45,-7.73,-7.69,0,*51
1485943632.27,33098,9.69,73386.5,-5.45,-7.87,-7.87,0,*55
1485943633.55,33099,9.69,73392.5,-5.45,-7.73,-7.73,0,*54
1485943634.78,33100,9.69,73388.0,-5.45,-7.83,-7.83,0,*55
1485943636.06,33101,9.69,73390.8,-5.45,-7.61,-7.57,0,*51
1485943637.34,33102,9.69,73392.5,-5.45,-7.73,-7.61,0,*54
1485943638.62,33103,9.63,73382.5,-5.45,-7.69,-7.73,0,*5D
1485943639.87,33104,9.63,73384.3,-5.43,-7.57,-7.57,0,*57
1485943641.15,33105,9.69,73384.0,-5.45,-7.61,-7.61,0,*50
1485943642.43,33106,9.69,73384.5,-5.45,-7.69,-7.69,0,*53
1485943643.71,33107,9.69,73382.3,-5.45,-7.73,-7.61,0,*51
1485943644.94,33108,9.69,73382.8,-5.45,-7.87,-7.87,0,*5D
1485943646.19,33109,9.69,73384.3,-5.45,-7.87,-7.73,0,*57
1485943647.47,33110,9.69,73386.0,-5.45,-7.73,-7.73,0,*54
1485943648.69,33111,9.63,73382.3,-5.45,-7.49,-7.49,0,*55
1485943649.96,33112,9.69,73386.8,-5.49,-7.27,-7.27,0,*5A
1485943651.22,33113,9.69,73390.5,-5.45,-7.35,-7.23,0,*50
1485943652.5,33114,9.69,73394.8,-5.45,-7.35,-7.35,0,*50
1485943653.75,33115,9.63,73382.0,-5.45,-7.83,-7.73,0,*5E
1485943654.99,33116,9.69,73374.3,-5.45,-7.87,-7.95,0,*51
1485943656.28,33117,9.69,73382.3,-5.45,-7.57,-7.57,0,*53
1485943657.56,33118,9.69,73380.3,-5.45,-7.61,-7.61,0,*5C
1485943658.79,33119,9.69,73380.8,-5.45,-7.83,-7.87,0,*59
1485943660.04,33120,9.69,73378.5,-5.45,-7.49,-7.43,0,*5D
1485943661.32,33121,9.69,73382.3,-5.45,-7.61,-7.61,0,*56
1485943662.57,33122,9.63,73376.0,-5.45,-7.61,-7.49,0,*5F
1485943663.85,33123,9.63,73376.5,-5.45,-7.43,-7.35,0,*55
1485943665.12,33124,9.69,73378.8,-5.45,-7.35,-7.31,0,*57
1485943666.4,33125,9.69,73370.5,-5.45,-7.61,-7.61,0,*52
1485943667.62,33126,9.69,73368.0,-5.45,-7.49,-7.49,0,*51
1485943668.88,33127,9.69,73368.0,-5.45,-7.31,-7.23,0,*53
1485943670.13,33128,9.63,73366.8,-5.45,-7.35,-7.19,0,*51
1485943671.38,33129,9.69,73368.8,-5.45,-7.31,-7.23,0,*5D
1485943672.63,33130,9.69,73368.0,-5.45,-7.31,-7.19,0,*5C
1485943673.87,33131,9.69,73372.0,-5.43,-7.27,-7.31,0,*56
1485943675.15,33132,9.63,73368.3,-5.45,-7.43,-7.35,0,*55
1485943676.43,33133,9.69,73370.5,-5.45,-7.57,-7.57,0,*55
1485943677.71,33134,9.69,73376.8,-5.45,-7.31,-7.31,0,*52
1485943678.95,33135,9.69,73374.8,-5.43,-7.31,-7.31,0,*55
1485943680.17,33136,9.63,73374.8,-5.43,-7.83,-7.69,0,*52
1485943681.46,33137,9.69,73370.8,-5.45,-7.73,-7.57,0,*57
1485943682.73,33138,9.69,73374.8,-5.45,-7.35,-7.31,0,*5A
1485943683.96,33139,9.63,73370.5,-5.45,-7.23,-7.19,0,*56
1485943685.19,33140,9.69,73378.0,-5.45,-7.23,-7.19,0,*58
1485943686.42,33141,9.69,73368.8,-5.41,-7.19,-7.15,0,*58
1485943687.66,33142,9.69,73366.0,-5.43,-7.39,-7.39,0,*55
1485943688.91,33143,9.63,73364.8,-5.43,-7.43,-7.39,0,*59
1485943690.19,33144,9.63,73362.3,-5.41,-7.43,-7.43,0,*51
1485943691.41,33145,9.69,73366.5,-5.43,-7.31,-7.19,0,*58
1485943692.64,33146,9.69,73370.5,-5.43,-7.27,-7.19,0,*5C
1485943693.92,33147,9.69,73370.8,-5.41,-7.43,-7.43,0,*52
1485943695.14,33148,9.63,73374.8,-5.39,-7.23,-7.35,0,*55
1485943696.38,33149,9.69,73376.0,-5.39,-7.27,-7.27,0,*53
1485943697.63,33150,9.63,73374.5,-5.41,-7.43,-7.53,0,*55
1485943698.82,33151,9.69,73372.3,-5.39,-7.49,-7.49,0,*5A
1485943700.04,33152,9.69,73372.3,-5.39,-7.61,-7.53,0,*58
1485943701.31,33153,9.63,73366.3,-5.41,-7.77,-7.77,0,*57
1485943702.54,33154,9.63,73360.3,-5.41,-7.83,-7.83,0,*50
1485943703.77,33155,9.63,73364.8,-5.41,-7.83,-7.83,0,*51
1485943705.0,33156,9.63,73356.0,-5.41,-7.83,-7.83,0,*52
1485943706.28,33157,9.63,73352.5,-5.41,-7.77,-7.77,0,*53
1485943707.55,33158,9.69,73358.0,-5.41,-7.69,-7.69,0,*5C
1485943708.74,33159,9.69,73362.5,-5.43,-7.53,-7.53,0,*5F
1485943709.99,33160,9.63,73360.8,-5.43,-7.65,-7.57,0,*54
1485943711.24,33161,9.69,73364.3,-5.43,-7.77,-7.77,0,*54
1485943712.5,33162,9.69,73370.8,-5.43,-7.57,-7.43,0,*52
1485943713.74,33163,9.69,73372.0,-5.43,-7.69,-7.77,0,*59
1485943714.99,33164,9.69,73370.3,-5.43,-7.99,-7.95,0,*5D
1485943716.24,33165,9.63,73368.8,-5.43,-7.69,-7.65,0,*5C
1485943717.49,33166,9.69,73374.3,-5.43,-7.65,-7.65,0,*53
1485943718.73,33167,9.63,73366.0,-5.43,-7.77,-7.69,0,*5D
1485943719.98,33168,9.69,73372.0,-5.43,-7.77,-7.69,0,*52
1485943721.2,33169,9.69,73370.8,-5.43,-7.83,-7.65,0,*54
1485943722.45,33170,9.69,73368.3,-5.45,-7.83,-7.73,0,*5D
1485943723.66,33171,9.69,73360.8,-5.43,-7.83,-7.83,0,*55